GFSNGP_prec_precacc12_180.txt.gz
Total_Precipitation_Accumulation
0.07 0.02 0.01 0.03 0.01 0.01 0.08 0.14 0.30 0.10 0.05 0.04 0.05 0.03 0.01 0.00 0.00 0.00 0.00 0.00 0.01 0.01 0.02 0.01 0.01 0.01 0.00 0.00 0.01 0.02 0.05 0.08 0.11 0.16 0.26 0.26 0.23 0.14 0.06 0.03 0.02 0.01 0.01 0.00
0.04 0.01 0.01 0.01 0.00 0.00 0.00 0.01 0.02 0.01 0.01 0.00 0.01 0.01 0.00 0.00 0.00 0.00 0.00 0.00 0.00 0.00 0.00 0.00 0.00 0.00 0.00 0.01 0.02 0.03 0.02 0.03 0.09 0.12 0.14 0.15 0.16 0.13 0.08 0.05 0.02 0.01 0.01 0.00
0.08 0.00 0.02 0.01 0.00 0.00 0.00 0.01 0.01 0.01 0.00 0.00 0.00 0.00 0.00 0.00 0.00 0.00 0.00 0.00 0.00 0.00 0.00 0.00 0.00 0.00 0.00 0.00 0.00 0.02 0.07 0.05 0.04 0.08 0.11 0.12 0.11 0.12 0.11 0.06 0.02 0.01 0.01 0.01
0.04 0.00 0.04 0.01 0.00 0.00 0.00 0.00 0.01 0.00 0.00 0.00 0.00 0.00 0.00 0.00 0.00 0.00 0.00 0.00 0.00 0.01 0.02 0.02 0.01 0.00 0.00 0.00 0.00 0.00 0.02 0.05 0.05 0.06 0.13 0.12 0.09 0.09 0.10 0.08 0.06 0.04 0.02 0.01
0.03 0.01 0.00 0.00 0.00 0.01 0.04 0.04 0.04 0.06 0.07 0.08 0.04 0.04 0.05 0.01 0.01 0.01 0.01 0.00 0.01 0.01 0.02 0.02 0.02 0.01 0.00 0.00 0.00 0.00 0.00 0.00 0.01 0.03 0.09 0.11 0.08 0.10 0.11 0.11 0.14 0.12 0.06 0.03
0.06 0.09 0.01 0.00 0.00 0.01 0.04 0.06 0.02 0.03 0.04 0.04 0.04 0.03 0.06 0.07 0.03 0.02 0.02 0.01 0.00 0.01 0.00 0.02 0.02 0.01 0.00 0.00 0.00 0.00 0.00 0.00 0.00 0.01 0.06 0.11 0.11 0.13 0.18 0.14 0.17 0.19 0.16 0.08
0.27 0.26 0.07 0.07 0.02 0.01 0.11 0.13 0.04 0.04 0.05 0.03 0.06 0.10 0.06 0.03 0.02 0.01 0.03 0.06 0.05 0.02 0.01 0.00 0.00 0.00 0.00 0.00 0.00 0.00 0.00 0.00 0.01 0.02 0.04 0.11 0.15 0.18 0.22 0.21 0.21 0.20 0.16 0.11
0.29 0.45 0.29 0.17 0.17 0.27 0.30 0.20 0.13 0.08 0.05 0.09 0.11 0.12 0.09 0.03 0.02 0.02 0.03 0.05 0.11 0.14 0.07 0.02 0.00 0.00 0.01 0.01 0.01 0.00 0.00 0.00 0.00 0.02 0.08 0.15 0.24 0.32 0.32 0.28 0.24 0.17 0.10 0.06
0.17 0.24 0.19 0.15 0.12 0.25 0.18 0.17 0.17 0.14 0.23 0.34 0.22 0.05 0.01 0.00 0.00 0.00 0.00 0.00 0.01 0.04 0.04 0.00 0.00 0.00 0.00 0.02 0.03 0.05 0.06 0.03 0.03 0.05 0.13 0.23 0.35 0.42 0.41 0.39 0.28 0.20 0.13 0.07
0.05 0.01 0.01 0.01 0.01 0.04 0.06 0.08 0.23 0.18 0.16 0.12 0.09 0.02 0.02 0.00 0.00 0.00 0.00 0.01 0.00 0.00 0.00 0.00 0.00 0.00 0.00 0.01 0.04 0.10 0.24 0.28 0.19 0.16 0.25 0.36 0.42 0.42 0.39 0.38 0.32 0.25 0.19 0.16
0.00 0.00 0.00 0.00 0.00 0.03 0.06 0.08 0.05 0.02 0.03 0.04 0.04 0.00 0.00 0.00 0.00 0.00 0.00 0.00 0.01 0.01 0.00 0.00 0.00 0.00 0.02 0.07 0.15 0.18 0.26 0.43 0.51 0.45 0.41 0.43 0.43 0.37 0.36 0.38 0.33 0.31 0.22 0.16
0.00 0.00 0.00 0.01 0.11 0.18 0.20 0.07 0.01 0.01 0.05 0.09 0.02 0.00 0.00 0.00 0.00 0.00 0.00 0.00 0.00 0.00 0.00 0.00 0.00 0.00 0.00 0.02 0.15 0.22 0.24 0.29 0.38 0.44 0.47 0.49 0.47 0.46 0.48 0.45 0.42 0.30 0.14 0.06
0.00 0.00 0.00 0.01 0.06 0.05 0.06 0.03 0.07 0.07 0.09 0.07 0.00 0.00 0.00 0.00 0.02 0.02 0.00 0.00 0.00 0.00 0.00 0.00 0.00 0.00 0.00 0.00 0.01 0.01 0.03 0.07 0.14 0.20 0.25 0.28 0.32 0.37 0.38 0.40 0.32 0.17 0.08 0.02
0.00 0.00 0.03 0.01 0.01 0.08 0.13 0.10 0.16 0.11 0.05 0.03 0.02 0.03 0.03 0.03 0.02 0.00 0.00 0.00 0.00 0.00 0.00 0.00 0.00 0.00 0.00 0.00 0.04 0.03 0.04 0.07 0.12 0.13 0.10 0.10 0.11 0.14 0.18 0.23 0.18 0.14 0.09 0.02
0.00 0.00 0.04 0.02 0.00 0.01 0.00 0.01 0.07 0.14 0.01 0.00 0.00 0.03 0.08 0.06 0.01 0.00 0.00 0.00 0.00 0.00 0.00 0.00 0.00 0.00 0.01 0.04 0.08 0.08 0.06 0.05 0.07 0.10 0.09 0.09 0.08 0.09 0.10 0.11 0.09 0.08 0.05 0.04
0.00 0.02 0.04 0.02 0.00 0.00 0.01 0.00 0.01 0.01 0.00 0.00 0.00 0.00 0.00 0.00 0.00 0.02 0.05 0.08 0.15 0.13 0.09 0.05 0.03 0.03 0.05 0.09 0.12 0.13 0.09 0.08 0.09 0.09 0.08 0.08 0.06 0.04 0.04 0.04 0.03 0.02 0.01 0.01
0.16 0.10 0.05 0.04 0.01 0.01 0.04 0.04 0.03 0.00 0.00 0.00 0.00 0.01 0.00 0.00 0.00 0.00 0.00 0.01 0.02 0.07 0.07 0.04 0.08 0.08 0.06 0.07 0.07 0.04 0.03 0.03 0.06 0.08 0.06 0.04 0.02 0.01 0.00 0.00 0.00 0.00 0.00 0.00
0.15 0.36 0.19 0.12 0.01 0.02 0.03 0.00 0.00 0.00 0.00 0.00 0.01 0.02 0.01 0.00 0.00 0.00 0.00 0.01 0.02 0.05 0.14 0.02 0.04 0.08 0.09 0.07 0.03 0.01 0.00 0.00 0.00 0.01 0.01 0.01 0.00 0.00 0.00 0.00 0.00 0.00 0.00 0.00
0.09 0.24 0.07 0.08 0.01 0.00 0.00 0.00 0.00 0.00 0.00 0.00 0.01 0.00 0.00 0.00 0.00 0.00 0.00 0.01 0.01 0.02 0.10 0.21 0.08 0.03 0.01 0.01 0.00 0.00 0.00 0.00 0.00 0.00 0.00 0.00 0.00 0.00 0.00 0.00 0.01 0.01 0.01 0.01
0.13 0.02 0.01 0.00 0.00 0.00 0.00 0.00 0.00 0.00 0.00 0.00 0.01 0.00 0.00 0.00 0.00 0.00 0.00 0.00 0.00 0.01 0.00 0.03 0.15 0.21 0.27 0.11 0.02 0.00 0.00 0.00 0.00 0.00 0.00 0.00 0.01 0.01 0.02 0.02 0.02 0.04 0.03 0.02
0.00 0.00 0.00 0.00 0.00 0.00 0.00 0.00 0.00 0.00 0.00 0.00 0.00 0.01 0.01 0.01 0.00 0.00 0.00 0.00 0.00 0.00 0.00 0.01 0.02 0.06 0.13 0.15 0.08 0.00 0.00 0.00 0.00 0.00 0.01 0.01 0.02 0.04 0.04 0.04 0.04 0.04 0.04 0.03
0.00 0.00 0.00 0.00 0.00 0.00 0.00 0.00 0.00 0.00 0.00 0.00 0.00 0.01 0.01 0.01 0.00 0.01 0.01 0.01 0.01 0.01 0.01 0.01 0.02 0.02 0.03 0.04 0.03 0.03 0.01 0.00 0.01 0.01 0.02 0.03 0.03 0.03 0.04 0.04 0.03 0.03 0.03 0.02
0.00 0.00 0.00 0.00 0.00 0.00 0.00 0.00 0.00 0.00 0.00 0.00 0.01 0.01 0.01 0.02 0.04 0.03 0.05 0.09 0.10 0.14 0.17 0.22 0.20 0.15 0.11 0.06 0.03 0.01 0.00 0.00 0.01 0.01 0.01 0.02 0.02 0.02 0.02 0.02 0.03 0.02 0.02 0.02
0.01 0.00 0.00 0.00 0.00 0.00 0.00 0.01 0.00 0.01 0.00 0.01 0.01 0.02 0.01 0.01 0.04 0.09 0.11 0.14 0.16 0.17 0.18 0.17 0.14 0.12 0.07 0.04 0.02 0.01 0.00 0.00 0.00 0.00 0.00 0.01 0.01 0.01 0.01 0.02 0.03 0.02 0.03 0.03
0.00 0.00 0.00 0.00 0.00 0.00 0.00 0.00 0.00 0.00 0.00 0.01 0.02 0.02 0.02 0.01 0.02 0.05 0.06 0.08 0.08 0.07 0.10 0.12 0.11 0.10 0.07 0.05 0.02 0.00 0.00 0.00 0.00 0.00 0.00 0.00 0.00 0.00 0.01 0.01 0.01 0.01 0.02 0.01
0.00 0.00 0.00 0.00 0.00 0.00 0.00 0.01 0.00 0.00 0.00 0.01 0.02 0.02 0.02 0.02 0.02 0.03 0.03 0.04 0.04 0.04 0.05 0.08 0.07 0.05 0.03 0.01 0.00 0.00 0.00 0.00 0.00 0.00 0.00 0.00 0.01 0.01 0.01 0.02 0.01 0.01 0.01 0.01
0.00 0.00 0.00 0.00 0.00 0.00 0.00 0.00 0.00 0.01 0.01 0.00 0.02 0.03 0.02 0.02 0.02 0.02 0.02 0.03 0.03 0.03 0.04 0.05 0.03 0.02 0.01 0.01 0.01 0.00 0.00 0.00 0.00 0.00 0.00 0.01 0.01 0.01 0.02 0.02 0.04 0.04 0.03 0.03

GFSNGP_prec_precacc12_186.txt.gz
Total_Precipitation_Accumulation
0.01 0.01 0.00 0.01 0.00 0.00 0.02 0.03 0.08 0.02 0.01 0.02 0.03 0.02 0.01 0.00 0.00 0.00 0.00 0.00 0.01 0.01 0.02 0.03 0.04 0.09 0.15 0.23 0.33 0.40 0.30 0.22 0.25 0.32 0.41 0.43 0.38 0.33 0.25 0.15 0.12 0.10 0.10 0.11
0.00 0.00 0.00 0.00 0.00 0.00 0.00 0.00 0.00 0.00 0.00 0.00 0.00 0.01 0.00 0.00 0.00 0.00 0.00 0.00 0.00 0.00 0.00 0.00 0.01 0.01 0.02 0.09 0.29 0.50 0.33 0.21 0.30 0.30 0.27 0.27 0.30 0.28 0.26 0.17 0.09 0.04 0.02 0.02
0.00 0.00 0.00 0.00 0.00 0.00 0.00 0.00 0.00 0.00 0.00 0.00 0.00 0.00 0.00 0.00 0.00 0.00 0.00 0.00 0.00 0.00 0.00 0.00 0.00 0.00 0.00 0.01 0.04 0.20 0.46 0.52 0.35 0.42 0.38 0.30 0.23 0.23 0.28 0.24 0.16 0.09 0.05 0.04
0.00 0.00 0.01 0.00 0.00 0.00 0.00 0.00 0.01 0.01 0.01 0.00 0.00 0.00 0.00 0.00 0.00 0.00 0.00 0.00 0.00 0.01 0.02 0.02 0.01 0.00 0.00 0.00 0.01 0.00 0.03 0.20 0.54 0.55 0.45 0.36 0.31 0.23 0.19 0.19 0.19 0.18 0.12 0.09
0.01 0.01 0.00 0.00 0.00 0.01 0.05 0.05 0.03 0.04 0.01 0.00 0.00 0.00 0.00 0.00 0.00 0.00 0.00 0.01 0.01 0.01 0.02 0.02 0.02 0.01 0.00 0.00 0.01 0.01 0.00 0.01 0.09 0.22 0.39 0.40 0.38 0.28 0.18 0.17 0.19 0.16 0.10 0.04
0.02 0.06 0.01 0.00 0.00 0.01 0.03 0.06 0.02 0.02 0.01 0.01 0.01 0.02 0.01 0.00 0.00 0.02 0.01 0.00 0.00 0.01 0.01 0.02 0.02 0.02 0.01 0.01 0.02 0.02 0.00 0.00 0.01 0.03 0.09 0.18 0.26 0.29 0.25 0.16 0.18 0.20 0.17 0.10
0.02 0.08 0.04 0.06 0.02 0.01 0.08 0.11 0.03 0.01 0.00 0.02 0.05 0.08 0.06 0.10 0.14 0.03 0.03 0.06 0.06 0.02 0.01 0.01 0.01 0.01 0.02 0.03 0.06 0.03 0.03 0.01 0.01 0.04 0.09 0.16 0.21 0.28 0.32 0.24 0.22 0.23 0.22 0.19
0.05 0.08 0.10 0.09 0.04 0.06 0.12 0.06 0.03 0.04 0.02 0.07 0.11 0.16 0.19 0.17 0.08 0.08 0.06 0.05 0.11 0.14 0.11 0.09 0.05 0.02 0.02 0.03 0.03 0.04 0.05 0.03 0.00 0.01 0.07 0.18 0.26 0.35 0.42 0.38 0.27 0.23 0.19 0.17
0.03 0.06 0.09 0.11 0.02 0.02 0.03 0.00 0.00 0.08 0.22 0.32 0.21 0.15 0.11 0.04 0.03 0.02 0.01 0.01 0.03 0.08 0.18 0.19 0.12 0.14 0.10 0.02 0.01 0.03 0.04 0.05 0.01 0.04 0.10 0.19 0.30 0.37 0.48 0.53 0.36 0.26 0.21 0.17
0.00 0.00 0.00 0.00 0.00 0.00 0.00 0.00 0.00 0.06 0.13 0.10 0.11 0.08 0.03 0.01 0.00 0.00 0.02 0.03 0.03 0.04 0.12 0.16 0.20 0.25 0.25 0.27 0.12 0.05 0.05 0.06 0.04 0.07 0.15 0.26 0.33 0.33 0.38 0.47 0.40 0.32 0.27 0.28
0.00 0.00 0.00 0.00 0.00 0.00 0.00 0.00 0.00 0.00 0.01 0.04 0.11 0.10 0.01 0.00 0.00 0.00 0.01 0.01 0.02 0.04 0.08 0.22 0.16 0.20 0.19 0.31 0.28 0.16 0.05 0.06 0.16 0.20 0.24 0.32 0.37 0.34 0.40 0.46 0.38 0.37 0.31 0.29
0.00 0.00 0.00 0.00 0.00 0.00 0.00 0.00 0.00 0.00 0.04 0.09 0.08 0.03 0.01 0.00 0.00 0.00 0.00 0.00 0.00 0.00 0.04 0.09 0.03 0.03 0.04 0.03 0.07 0.09 0.05 0.06 0.13 0.23 0.36 0.46 0.50 0.56 0.63 0.60 0.62 0.51 0.36 0.30
0.00 0.00 0.00 0.00 0.00 0.00 0.00 0.00 0.02 0.02 0.09 0.09 0.05 0.02 0.02 0.01 0.00 0.00 0.00 0.00 0.00 0.00 0.00 0.00 0.00 0.00 0.00 0.00 0.00 0.00 0.01 0.04 0.11 0.19 0.28 0.33 0.40 0.45 0.47 0.57 0.53 0.38 0.32 0.23
0.00 0.01 0.02 0.00 0.00 0.00 0.00 0.04 0.10 0.05 0.05 0.13 0.10 0.03 0.01 0.00 0.00 0.00 0.00 0.00 0.00 0.00 0.00 0.00 0.01 0.00 0.00 0.00 0.03 0.03 0.04 0.09 0.13 0.15 0.14 0.16 0.17 0.21 0.25 0.30 0.27 0.28 0.27 0.15
0.00 0.00 0.02 0.01 0.00 0.00 0.00 0.00 0.06 0.15 0.06 0.13 0.22 0.11 0.01 0.00 0.00 0.00 0.00 0.00 0.00 0.00 0.00 0.00 0.02 0.02 0.02 0.05 0.10 0.10 0.08 0.08 0.11 0.14 0.13 0.14 0.13 0.15 0.19 0.21 0.21 0.23 0.21 0.21
0.00 0.00 0.00 0.00 0.00 0.00 0.01 0.00 0.03 0.15 0.15 0.02 0.02 0.01 0.00 0.00 0.00 0.00 0.00 0.00 0.00 0.00 0.00 0.00 0.02 0.05 0.08 0.12 0.15 0.17 0.12 0.12 0.13 0.13 0.11 0.12 0.12 0.12 0.13 0.14 0.15 0.13 0.11 0.11
0.00 0.00 0.00 0.01 0.01 0.01 0.05 0.10 0.20 0.21 0.16 0.07 0.00 0.00 0.00 0.00 0.00 0.00 0.00 0.00 0.00 0.00 0.00 0.02 0.07 0.10 0.12 0.11 0.11 0.10 0.07 0.07 0.11 0.16 0.16 0.11 0.10 0.10 0.10 0.10 0.10 0.10 0.11 0.10
0.01 0.07 0.08 0.10 0.02 0.03 0.07 0.13 0.19 0.14 0.06 0.01 0.00 0.01 0.01 0.00 0.00 0.00 0.00 0.00 0.00 0.04 0.12 0.03 0.06 0.12 0.14 0.13 0.10 0.07 0.04 0.04 0.04 0.05 0.05 0.07 0.07 0.07 0.07 0.07 0.06 0.06 0.06 0.06
0.15 0.31 0.13 0.11 0.04 0.06 0.08 0.02 0.01 0.01 0.01 0.01 0.00 0.00 0.01 0.00 0.00 0.00 0.00 0.01 0.01 0.01 0.09 0.21 0.10 0.04 0.03 0.03 0.03 0.03 0.03 0.02 0.01 0.01 0.01 0.02 0.03 0.02 0.02 0.03 0.04 0.04 0.03 0.04
0.31 0.23 0.24 0.10 0.04 0.02 0.01 0.01 0.01 0.01 0.01 0.00 0.00 0.00 0.00 0.00 0.00 0.00 0.00 0.01 0.00 0.00 0.00 0.03 0.15 0.19 0.26 0.13 0.03 0.01 0.00 0.00 0.00 0.00 0.00 0.00 0.01 0.01 0.01 0.02 0.02 0.03 0.03 0.03
0.02 0.02 0.01 0.00 0.01 0.00 0.00 0.00 0.00 0.00 0.00 0.00 0.00 0.00 0.00 0.00 0.00 0.00 0.00 0.00 0.00 0.00 0.01 0.02 0.03 0.06 0.13 0.19 0.17 0.07 0.01 0.00 0.00 0.01 0.01 0.01 0.01 0.01 0.02 0.03 0.03 0.03 0.04 0.03
0.00 0.00 0.00 0.00 0.00 0.00 0.00 0.00 0.00 0.00 0.00 0.00 0.01 0.01 0.01 0.00 0.00 0.00 0.01 0.01 0.02 0.04 0.04 0.04 0.03 0.01 0.02 0.04 0.08 0.12 0.08 0.04 0.01 0.01 0.02 0.03 0.02 0.02 0.02 0.03 0.03 0.03 0.03 0.03
0.00 0.00 0.00 0.00 0.00 0.01 0.01 0.00 0.00 0.00 0.00 0.01 0.01 0.01 0.01 0.01 0.01 0.01 0.01 0.03 0.05 0.08 0.08 0.09 0.08 0.06 0.07 0.06 0.04 0.05 0.06 0.05 0.03 0.03 0.02 0.03 0.03 0.03 0.02 0.03 0.03 0.03 0.03 0.02
0.00 0.00 0.00 0.00 0.00 0.00 0.00 0.00 0.00 0.00 0.00 0.01 0.01 0.01 0.01 0.01 0.01 0.01 0.02 0.05 0.07 0.09 0.11 0.13 0.14 0.13 0.09 0.08 0.07 0.05 0.04 0.04 0.03 0.02 0.02 0.02 0.02 0.02 0.02 0.02 0.03 0.03 0.03 0.02
0.00 0.00 0.00 0.00 0.00 0.00 0.00 0.00 0.00 0.00 0.00 0.00 0.01 0.01 0.01 0.01 0.01 0.03 0.03 0.04 0.06 0.07 0.12 0.17 0.16 0.15 0.13 0.10 0.07 0.04 0.02 0.02 0.01 0.00 0.00 0.00 0.00 0.01 0.01 0.01 0.02 0.03 0.02 0.01
0.00 0.00 0.00 0.00 0.00 0.00 0.00 0.01 0.00 0.00 0.00 0.00 0.01 0.02 0.02 0.02 0.02 0.03 0.05 0.06 0.07 0.07 0.08 0.12 0.11 0.08 0.05 0.03 0.01 0.00 0.00 0.00 0.00 0.00 0.00 0.00 0.00 0.00 0.00 0.01 0.01 0.01 0.01 0.01
0.00 0.00 0.00 0.00 0.00 0.00 0.00 0.00 0.00 0.00 0.00 0.00 0.02 0.03 0.02 0.02 0.03 0.03 0.03 0.04 0.05 0.05 0.05 0.06 0.04 0.02 0.01 0.00 0.00 0.00 0.00 0.00 0.00 0.00 0.01 0.01 0.01 0.01 0.01 0.02 0.03 0.04 0.03 0.02

GFSNGP_prec_precacc12_192.txt.gz
Total_Precipitation_Accumulation
0.07 0.01 0.00 0.00 0.00 0.00 0.00 0.00 0.02 0.00 0.00 0.00 0.00 0.00 0.00 0.00 0.00 0.00 0.00 0.00 0.00 0.00 0.00 0.02 0.03 0.09 0.15 0.23 0.33 0.43 0.41 0.38 0.40 0.46 0.47 0.50 0.51 0.54 0.53 0.42 0.33 0.34 0.38 0.35
0.03 0.00 0.00 0.00 0.00 0.00 0.00 0.00 0.00 0.00 0.00 0.00 0.00 0.00 0.00 0.00 0.00 0.00 0.00 0.00 0.00 0.00 0.00 0.00 0.00 0.01 0.03 0.09 0.30 0.53 0.49 0.55 0.54 0.50 0.52 0.57 0.61 0.54 0.48 0.41 0.29 0.21 0.20 0.18
0.02 0.00 0.00 0.00 0.00 0.00 0.00 0.00 0.00 0.00 0.00 0.00 0.00 0.00 0.00 0.00 0.00 0.00 0.00 0.00 0.00 0.00 0.00 0.00 0.01 0.01 0.01 0.01 0.04 0.21 0.52 0.68 0.62 0.80 0.93 0.69 0.56 0.55 0.60 0.51 0.46 0.37 0.28 0.29
0.01 0.00 0.00 0.00 0.00 0.00 0.00 0.00 0.00 0.01 0.01 0.00 0.00 0.00 0.00 0.00 0.00 0.00 0.00 0.00 0.00 0.00 0.00 0.00 0.00 0.00 0.00 0.00 0.01 0.01 0.06 0.26 0.74 0.97 1.04 1.10 0.84 0.61 0.62 0.74 0.77 0.69 0.58 0.52
0.00 0.01 0.00 0.00 0.00 0.00 0.01 0.01 0.00 0.02 0.00 0.00 0.00 0.00 0.00 0.00 0.00 0.00 0.00 0.01 0.01 0.01 0.01 0.00 0.00 0.00 0.01 0.01 0.02 0.04 0.06 0.16 0.32 0.45 0.87 1.10 1.16 0.87 0.66 0.69 0.66 0.70 0.70 0.62
0.01 0.01 0.00 0.00 0.00 0.00 0.00 0.00 0.00 0.00 0.00 0.00 0.00 0.01 0.00 0.00 0.00 0.01 0.01 0.01 0.00 0.01 0.01 0.00 0.00 0.01 0.01 0.01 0.02 0.04 0.07 0.10 0.19 0.23 0.23 0.35 0.62 0.70 0.61 0.53 0.56 0.47 0.50 0.49
0.01 0.02 0.00 0.00 0.00 0.00 0.01 0.01 0.00 0.00 0.00 0.00 0.00 0.01 0.03 0.08 0.12 0.02 0.01 0.00 0.01 0.01 0.00 0.01 0.01 0.02 0.03 0.04 0.06 0.03 0.06 0.07 0.12 0.17 0.19 0.20 0.32 0.45 0.42 0.32 0.30 0.38 0.36 0.40
0.02 0.03 0.00 0.00 0.00 0.00 0.00 0.00 0.00 0.00 0.00 0.00 0.00 0.04 0.11 0.16 0.06 0.06 0.03 0.00 0.01 0.01 0.04 0.08 0.05 0.03 0.03 0.03 0.04 0.05 0.07 0.10 0.11 0.14 0.28 0.33 0.21 0.24 0.32 0.33 0.24 0.20 0.23 0.29
0.00 0.00 0.00 0.00 0.00 0.00 0.00 0.00 0.00 0.00 0.00 0.00 0.02 0.11 0.10 0.04 0.02 0.01 0.01 0.01 0.02 0.04 0.14 0.19 0.13 0.15 0.12 0.03 0.02 0.04 0.07 0.14 0.16 0.25 0.32 0.32 0.22 0.17 0.26 0.30 0.21 0.16 0.14 0.15
0.00 0.00 0.00 0.00 0.00 0.00 0.00 0.00 0.00 0.00 0.00 0.00 0.04 0.07 0.03 0.01 0.00 0.00 0.02 0.03 0.03 0.03 0.12 0.17 0.23 0.31 0.32 0.40 0.23 0.10 0.14 0.14 0.20 0.32 0.34 0.27 0.17 0.21 0.20 0.20 0.15 0.12 0.11 0.15
0.00 0.00 0.00 0.00 0.00 0.00 0.00 0.00 0.00 0.00 0.00 0.00 0.08 0.10 0.01 0.00 0.00 0.01 0.02 0.02 0.02 0.03 0.08 0.26 0.29 0.29 0.44 0.60 0.63 0.51 0.37 0.40 0.38 0.29 0.27 0.30 0.24 0.18 0.20 0.20 0.13 0.12 0.12 0.16
0.00 0.00 0.00 0.00 0.00 0.00 0.00 0.00 0.00 0.00 0.00 0.00 0.06 0.03 0.01 0.00 0.00 0.01 0.01 0.00 0.00 0.00 0.04 0.10 0.05 0.05 0.19 0.33 0.44 0.55 0.69 0.64 0.70 0.69 0.41 0.25 0.22 0.24 0.28 0.29 0.35 0.31 0.27 0.28
0.00 0.00 0.00 0.00 0.00 0.00 0.00 0.00 0.00 0.00 0.00 0.03 0.04 0.02 0.02 0.01 0.00 0.01 0.00 0.00 0.00 0.00 0.00 0.01 0.02 0.02 0.03 0.07 0.12 0.15 0.21 0.33 0.55 0.73 0.70 0.44 0.30 0.22 0.18 0.26 0.30 0.29 0.29 0.25
0.00 0.01 0.02 0.00 0.00 0.00 0.00 0.00 0.00 0.00 0.00 0.10 0.10 0.03 0.01 0.01 0.00 0.00 0.00 0.00 0.00 0.00 0.00 0.01 0.03 0.04 0.04 0.02 0.01 0.02 0.04 0.09 0.08 0.13 0.21 0.31 0.28 0.26 0.16 0.15 0.16 0.22 0.26 0.17
0.00 0.01 0.02 0.01 0.01 0.00 0.00 0.01 0.01 0.05 0.07 0.14 0.23 0.17 0.09 0.04 0.02 0.03 0.04 0.01 0.00 0.00 0.00 0.00 0.02 0.03 0.02 0.01 0.01 0.02 0.02 0.04 0.05 0.06 0.07 0.08 0.09 0.16 0.23 0.18 0.17 0.23 0.25 0.28
0.00 0.00 0.01 0.01 0.02 0.02 0.02 0.03 0.04 0.16 0.16 0.03 0.02 0.04 0.06 0.08 0.06 0.00 0.00 0.00 0.00 0.00 0.00 0.00 0.01 0.03 0.03 0.03 0.03 0.04 0.04 0.04 0.04 0.05 0.06 0.07 0.09 0.12 0.14 0.15 0.16 0.17 0.16 0.17
0.01 0.01 0.01 0.01 0.02 0.02 0.02 0.06 0.17 0.21 0.16 0.07 0.01 0.00 0.00 0.01 0.00 0.00 0.00 0.00 0.00 0.00 0.00 0.00 0.01 0.03 0.06 0.04 0.05 0.06 0.04 0.04 0.06 0.08 0.10 0.09 0.09 0.11 0.12 0.12 0.13 0.14 0.16 0.16
0.01 0.01 0.01 0.01 0.01 0.02 0.05 0.13 0.20 0.17 0.11 0.06 0.01 0.00 0.01 0.01 0.00 0.00 0.00 0.00 0.00 0.00 0.01 0.01 0.02 0.04 0.05 0.06 0.07 0.07 0.04 0.04 0.04 0.05 0.05 0.07 0.08 0.08 0.08 0.08 0.08 0.08 0.10 0.12
0.07 0.08 0.06 0.04 0.05 0.12 0.12 0.05 0.02 0.02 0.03 0.03 0.01 0.01 0.01 0.01 0.01 0.00 0.00 0.00 0.01 0.00 0.01 0.00 0.02 0.02 0.02 0.02 0.03 0.03 0.03 0.02 0.01 0.01 0.02 0.03 0.04 0.04 0.04 0.05 0.06 0.07 0.07 0.08
0.20 0.22 0.25 0.12 0.06 0.04 0.02 0.02 0.01 0.01 0.01 0.01 0.01 0.00 0.00 0.00 0.00 0.00 0.01 0.01 0.00 0.00 0.00 0.00 0.00 0.01 0.01 0.02 0.02 0.01 0.01 0.00 0.00 0.01 0.01 0.01 0.02 0.03 0.03 0.03 0.03 0.04 0.05 0.06
0.02 0.02 0.01 0.00 0.01 0.00 0.00 0.00 0.00 0.00 0.00 0.00 0.00 0.00 0.00 0.00 0.00 0.00 0.00 0.00 0.00 0.01 0.01 0.01 0.00 0.00 0.01 0.04 0.10 0.08 0.04 0.02 0.01 0.01 0.01 0.01 0.01 0.01 0.01 0.01 0.02 0.02 0.03 0.03
0.00 0.00 0.00 0.00 0.00 0.00 0.00 0.00 0.00 0.00 0.00 0.00 0.00 0.00 0.00 0.00 0.00 0.00 0.00 0.01 0.01 0.04 0.04 0.03 0.02 0.00 0.01 0.02 0.06 0.12 0.12 0.09 0.07 0.04 0.03 0.03 0.02 0.02 0.02 0.02 0.02 0.03 0.03 0.03
0.00 0.00 0.00 0.00 0.00 0.00 0.00 0.00 0.00 0.00 0.00 0.00 0.01 0.00 0.01 0.01 0.00 0.01 0.01 0.01 0.02 0.05 0.05 0.05 0.05 0.03 0.03 0.03 0.04 0.07 0.12 0.16 0.16 0.11 0.07 0.04 0.03 0.02 0.02 0.03 0.03 0.03 0.03 0.03
0.00 0.00 0.00 0.00 0.00 0.00 0.00 0.00 0.00 0.00 0.00 0.00 0.00 0.01 0.00 0.01 0.01 0.01 0.02 0.02 0.04 0.05 0.06 0.07 0.08 0.08 0.08 0.08 0.08 0.09 0.09 0.10 0.11 0.10 0.07 0.05 0.03 0.02 0.02 0.02 0.03 0.03 0.03 0.02
0.00 0.00 0.00 0.00 0.00 0.00 0.00 0.00 0.00 0.00 0.00 0.00 0.00 0.01 0.01 0.01 0.01 0.02 0.02 0.03 0.05 0.04 0.07 0.11 0.10 0.12 0.12 0.12 0.10 0.09 0.07 0.05 0.04 0.02 0.01 0.01 0.01 0.02 0.02 0.03 0.03 0.03 0.03 0.02
0.00 0.00 0.00 0.00 0.00 0.00 0.00 0.00 0.00 0.00 0.00 0.01 0.02 0.02 0.02 0.02 0.02 0.03 0.03 0.05 0.05 0.04 0.06 0.09 0.09 0.08 0.07 0.05 0.03 0.02 0.01 0.01 0.01 0.01 0.01 0.01 0.01 0.02 0.02 0.03 0.03 0.03 0.02 0.01
0.00 0.00 0.00 0.00 0.00 0.00 0.00 0.00 0.00 0.00 0.00 0.01 0.02 0.02 0.02 0.02 0.03 0.03 0.04 0.04 0.04 0.04 0.05 0.06 0.04 0.02 0.01 0.01 0.00 0.00 0.00 0.01 0.01 0.01 0.01 0.01 0.01 0.02 0.02 0.02 0.02 0.02 0.02 0.01

GFSNGP_prec_precacc12_195.txt.gz
Total_Precipitation_Accumulation
0.09 0.04 0.03 0.00 0.00 0.00 0.00 0.00 0.01 0.00 0.00 0.00 0.00 0.00 0.00 0.00 0.00 0.00 0.00 0.00 0.00 0.00 0.00 0.00 0.00 0.00 0.01 0.11 0.29 0.43 0.41 0.37 0.37 0.41 0.41 0.40 0.41 0.42 0.40 0.38 0.37 0.46 0.62 0.71
0.14 0.11 0.10 0.04 0.01 0.00 0.00 0.00 0.00 0.00 0.00 0.00 0.00 0.00 0.00 0.00 0.00 0.00 0.00 0.00 0.00 0.00 0.00 0.00 0.00 0.00 0.00 0.01 0.14 0.39 0.47 0.55 0.52 0.42 0.39 0.43 0.45 0.40 0.39 0.41 0.35 0.31 0.33 0.36
0.18 0.14 0.15 0.10 0.01 0.00 0.00 0.00 0.00 0.00 0.00 0.00 0.00 0.00 0.00 0.00 0.00 0.00 0.00 0.00 0.00 0.00 0.00 0.00 0.00 0.00 0.00 0.00 0.01 0.12 0.39 0.57 0.55 0.65 0.79 0.55 0.48 0.54 0.61 0.56 0.54 0.49 0.41 0.40
0.14 0.11 0.11 0.02 0.00 0.00 0.00 0.00 0.00 0.00 0.00 0.00 0.00 0.00 0.00 0.00 0.00 0.00 0.00 0.00 0.00 0.00 0.00 0.00 0.00 0.00 0.00 0.00 0.01 0.01 0.05 0.21 0.64 0.83 0.92 1.05 0.85 0.68 0.70 0.84 0.90 0.81 0.74 0.69
0.08 0.04 0.01 0.00 0.00 0.00 0.00 0.00 0.00 0.00 0.00 0.00 0.00 0.00 0.00 0.00 0.00 0.00 0.00 0.01 0.01 0.01 0.01 0.00 0.00 0.00 0.01 0.01 0.02 0.04 0.06 0.16 0.31 0.41 0.82 1.09 1.22 1.04 0.78 0.78 0.78 0.81 0.81 0.74
0.03 0.02 0.01 0.00 0.00 0.00 0.00 0.00 0.00 0.00 0.00 0.00 0.00 0.00 0.00 0.00 0.00 0.01 0.01 0.01 0.00 0.01 0.00 0.00 0.00 0.01 0.01 0.00 0.02 0.04 0.07 0.10 0.19 0.23 0.25 0.44 0.74 0.85 0.72 0.61 0.65 0.59 0.62 0.63
0.03 0.02 0.00 0.00 0.00 0.00 0.00 0.00 0.00 0.00 0.00 0.00 0.00 0.00 0.00 0.01 0.07 0.02 0.01 0.00 0.01 0.01 0.00 0.00 0.00 0.02 0.03 0.03 0.03 0.03 0.06 0.07 0.12 0.17 0.21 0.29 0.46 0.57 0.48 0.41 0.40 0.45 0.43 0.47
0.04 0.04 0.01 0.00 0.00 0.00 0.00 0.00 0.00 0.00 0.00 0.00 0.00 0.00 0.00 0.03 0.03 0.05 0.03 0.00 0.01 0.00 0.00 0.02 0.01 0.03 0.03 0.03 0.04 0.05 0.07 0.10 0.11 0.15 0.30 0.45 0.45 0.33 0.33 0.36 0.33 0.29 0.30 0.35
0.00 0.00 0.00 0.00 0.00 0.00 0.00 0.00 0.00 0.00 0.00 0.00 0.00 0.00 0.00 0.00 0.01 0.01 0.01 0.01 0.01 0.00 0.04 0.05 0.03 0.08 0.11 0.04 0.05 0.07 0.08 0.14 0.17 0.26 0.34 0.42 0.41 0.27 0.22 0.23 0.21 0.20 0.16 0.16
0.00 0.00 0.00 0.00 0.00 0.00 0.00 0.00 0.00 0.00 0.00 0.00 0.00 0.00 0.00 0.00 0.00 0.00 0.01 0.02 0.02 0.02 0.08 0.09 0.17 0.24 0.30 0.43 0.31 0.15 0.15 0.15 0.22 0.34 0.37 0.33 0.28 0.30 0.22 0.18 0.13 0.11 0.08 0.09
0.00 0.00 0.00 0.00 0.00 0.00 0.00 0.00 0.00 0.00 0.00 0.00 0.00 0.00 0.00 0.00 0.00 0.01 0.01 0.01 0.01 0.02 0.03 0.22 0.27 0.28 0.44 0.61 0.68 0.57 0.39 0.42 0.39 0.32 0.31 0.37 0.38 0.31 0.23 0.23 0.17 0.11 0.07 0.05
0.00 0.00 0.00 0.00 0.00 0.00 0.00 0.00 0.00 0.00 0.00 0.00 0.00 0.00 0.00 0.00 0.00 0.01 0.01 0.00 0.00 0.00 0.01 0.09 0.04 0.05 0.20 0.34 0.46 0.59 0.73 0.65 0.71 0.71 0.46 0.32 0.29 0.31 0.25 0.27 0.30 0.23 0.15 0.13
0.00 0.00 0.00 0.00 0.00 0.00 0.00 0.00 0.00 0.00 0.00 0.00 0.00 0.01 0.01 0.01 0.00 0.01 0.00 0.00 0.00 0.00 0.00 0.01 0.02 0.02 0.03 0.08 0.12 0.15 0.22 0.35 0.61 0.84 0.87 0.61 0.41 0.29 0.21 0.21 0.21 0.21 0.21 0.20
0.00 0.00 0.00 0.00 0.00 0.00 0.00 0.00 0.00 0.00 0.00 0.00 0.02 0.02 0.01 0.01 0.00 0.00 0.00 0.01 0.02 0.00 0.00 0.01 0.02 0.04 0.04 0.02 0.01 0.02 0.04 0.09 0.09 0.18 0.31 0.44 0.42 0.35 0.19 0.14 0.13 0.18 0.21 0.14
0.00 0.00 0.01 0.01 0.01 0.00 0.00 0.01 0.01 0.01 0.02 0.07 0.22 0.17 0.09 0.04 0.02 0.03 0.05 0.05 0.02 0.00 0.00 0.00 0.02 0.03 0.02 0.01 0.01 0.01 0.01 0.03 0.04 0.05 0.06 0.09 0.09 0.17 0.25 0.21 0.18 0.21 0.20 0.21
0.00 0.00 0.00 0.01 0.02 0.02 0.02 0.03 0.03 0.03 0.08 0.03 0.02 0.04 0.06 0.08 0.08 0.03 0.01 0.00 0.00 0.00 0.00 0.00 0.01 0.01 0.01 0.01 0.01 0.01 0.01 0.01 0.02 0.03 0.05 0.05 0.05 0.06 0.09 0.11 0.12 0.13 0.15 0.17
0.01 0.01 0.01 0.01 0.02 0.02 0.02 0.00 0.01 0.05 0.11 0.07 0.01 0.00 0.00 0.01 0.02 0.04 0.00 0.00 0.00 0.00 0.00 0.00 0.00 0.00 0.00 0.01 0.01 0.01 0.01 0.01 0.02 0.02 0.03 0.02 0.02 0.02 0.04 0.07 0.09 0.13 0.16 0.17
0.01 0.01 0.01 0.01 0.01 0.01 0.01 0.01 0.07 0.13 0.11 0.06 0.01 0.00 0.00 0.01 0.02 0.02 0.02 0.01 0.01 0.00 0.00 0.00 0.01 0.02 0.01 0.01 0.01 0.01 0.01 0.02 0.02 0.02 0.03 0.03 0.03 0.04 0.05 0.06 0.06 0.07 0.10 0.13
0.02 0.02 0.01 0.02 0.03 0.09 0.08 0.04 0.02 0.02 0.04 0.05 0.02 0.01 0.01 0.01 0.01 0.02 0.02 0.01 0.01 0.01 0.00 0.00 0.01 0.01 0.01 0.02 0.01 0.01 0.01 0.01 0.01 0.01 0.02 0.03 0.04 0.04 0.04 0.05 0.06 0.07 0.07 0.09
0.07 0.11 0.12 0.08 0.05 0.03 0.02 0.03 0.01 0.01 0.01 0.01 0.01 0.00 0.00 0.00 0.01 0.01 0.01 0.01 0.00 0.00 0.00 0.00 0.00 0.00 0.01 0.01 0.02 0.01 0.01 0.01 0.01 0.01 0.01 0.01 0.03 0.04 0.03 0.03 0.03 0.04 0.05 0.05
0.01 0.01 0.00 0.00 0.00 0.00 0.00 0.00 0.00 0.00 0.00 0.00 0.00 0.00 0.00 0.01 0.00 0.00 0.00 0.00 0.00 0.01 0.00 0.00 0.00 0.00 0.00 0.01 0.02 0.05 0.04 0.03 0.03 0.03 0.03 0.02 0.01 0.01 0.01 0.02 0.02 0.02 0.03 0.03
0.00 0.00 0.00 0.00 0.00 0.00 0.00 0.00 0.00 0.00 0.00 0.00 0.00 0.00 0.01 0.01 0.00 0.00 0.00 0.00 0.01 0.03 0.01 0.01 0.00 0.00 0.01 0.01 0.02 0.08 0.09 0.08 0.08 0.07 0.07 0.07 0.05 0.04 0.03 0.02 0.03 0.03 0.03 0.03
0.00 0.00 0.00 0.00 0.00 0.00 0.00 0.00 0.00 0.00 0.00 0.00 0.00 0.00 0.01 0.01 0.00 0.01 0.01 0.01 0.02 0.02 0.01 0.02 0.02 0.02 0.02 0.03 0.03 0.06 0.12 0.16 0.17 0.15 0.13 0.11 0.08 0.05 0.04 0.03 0.03 0.03 0.04 0.03
0.00 0.00 0.00 0.00 0.00 0.00 0.00 0.00 0.00 0.00 0.00 0.00 0.00 0.00 0.01 0.01 0.01 0.01 0.01 0.01 0.02 0.03 0.03 0.04 0.05 0.06 0.06 0.06 0.07 0.07 0.08 0.10 0.12 0.13 0.13 0.10 0.06 0.03 0.03 0.03 0.03 0.04 0.03 0.03
0.00 0.00 0.00 0.00 0.00 0.00 0.00 0.00 0.00 0.00 0.00 0.00 0.00 0.00 0.00 0.00 0.01 0.01 0.02 0.02 0.03 0.02 0.04 0.07 0.07 0.08 0.09 0.10 0.09 0.08 0.08 0.06 0.04 0.03 0.02 0.02 0.02 0.02 0.03 0.03 0.03 0.03 0.03 0.02
0.00 0.00 0.00 0.00 0.00 0.00 0.00 0.00 0.00 0.00 0.00 0.01 0.01 0.01 0.01 0.01 0.01 0.02 0.02 0.03 0.02 0.02 0.03 0.06 0.06 0.05 0.05 0.04 0.03 0.02 0.01 0.01 0.01 0.01 0.01 0.01 0.02 0.02 0.03 0.03 0.03 0.03 0.02 0.02
0.00 0.00 0.00 0.00 0.00 0.00 0.00 0.00 0.00 0.00 0.00 0.02 0.02 0.01 0.01 0.02 0.02 0.02 0.03 0.04 0.04 0.03 0.03 0.04 0.03 0.01 0.01 0.01 0.01 0.01 0.01 0.01 0.01 0.01 0.01 0.02 0.01 0.02 0.02 0.02 0.02 0.02 0.02 0.01

GFSNGP_prec_precacc12_201.txt.gz
Total_Precipitation_Accumulation
0.09 0.04 0.03 0.00 0.00 0.00 0.00 0.00 0.00 0.00 0.00 0.00 0.00 0.00 0.00 0.00 0.00 0.00 0.00 0.00 0.00 0.00 0.00 0.00 0.00 0.00 0.00 0.00 0.00 0.00 0.00 0.00 0.01 0.06 0.12 0.14 0.14 0.15 0.17 0.21 0.22 0.32 0.47 0.55
0.15 0.13 0.12 0.05 0.01 0.01 0.00 0.00 0.00 0.00 0.00 0.00 0.00 0.01 0.00 0.00 0.00 0.00 0.00 0.00 0.00 0.00 0.00 0.00 0.00 0.00 0.00 0.00 0.00 0.00 0.00 0.00 0.01 0.04 0.12 0.20 0.25 0.21 0.19 0.23 0.25 0.23 0.25 0.34
0.29 0.26 0.24 0.28 0.04 0.00 0.00 0.00 0.00 0.01 0.00 0.00 0.01 0.02 0.00 0.00 0.00 0.00 0.00 0.00 0.00 0.00 0.00 0.00 0.00 0.00 0.00 0.00 0.00 0.00 0.00 0.00 0.01 0.04 0.15 0.18 0.18 0.22 0.22 0.24 0.31 0.29 0.27 0.29
0.47 0.33 0.33 0.16 0.01 0.00 0.00 0.00 0.00 0.00 0.00 0.01 0.01 0.00 0.00 0.00 0.00 0.00 0.00 0.00 0.00 0.00 0.00 0.00 0.00 0.00 0.00 0.00 0.00 0.00 0.00 0.00 0.02 0.06 0.13 0.23 0.25 0.26 0.31 0.37 0.39 0.44 0.42 0.46
0.48 0.29 0.08 0.01 0.00 0.00 0.00 0.00 0.00 0.00 0.00 0.00 0.01 0.00 0.00 0.00 0.00 0.00 0.00 0.00 0.00 0.00 0.00 0.00 0.00 0.00 0.00 0.00 0.00 0.00 0.00 0.01 0.13 0.07 0.13 0.28 0.41 0.47 0.45 0.47 0.46 0.54 0.57 0.55
0.59 0.31 0.13 0.01 0.00 0.00 0.00 0.00 0.00 0.00 0.00 0.00 0.00 0.00 0.00 0.00 0.00 0.00 0.00 0.00 0.00 0.00 0.00 0.00 0.00 0.00 0.00 0.00 0.00 0.00 0.00 0.01 0.12 0.16 0.13 0.18 0.34 0.46 0.45 0.42 0.48 0.43 0.50 0.54
0.39 0.22 0.06 0.00 0.00 0.00 0.01 0.01 0.00 0.00 0.00 0.00 0.00 0.00 0.00 0.00 0.00 0.00 0.00 0.00 0.00 0.00 0.00 0.00 0.00 0.01 0.01 0.01 0.00 0.00 0.01 0.01 0.06 0.10 0.12 0.20 0.29 0.39 0.34 0.37 0.40 0.40 0.40 0.46
0.20 0.19 0.06 0.00 0.00 0.00 0.00 0.00 0.00 0.00 0.00 0.00 0.00 0.00 0.00 0.00 0.00 0.00 0.00 0.00 0.01 0.00 0.00 0.00 0.00 0.00 0.00 0.00 0.00 0.01 0.02 0.01 0.03 0.07 0.21 0.38 0.37 0.27 0.24 0.30 0.34 0.30 0.32 0.39
0.02 0.03 0.01 0.00 0.00 0.00 0.00 0.00 0.00 0.00 0.00 0.00 0.00 0.00 0.00 0.00 0.00 0.00 0.00 0.00 0.01 0.00 0.00 0.00 0.00 0.00 0.02 0.02 0.03 0.05 0.02 0.02 0.06 0.15 0.33 0.40 0.37 0.24 0.19 0.19 0.23 0.23 0.19 0.20
0.02 0.01 0.00 0.00 0.00 0.00 0.00 0.00 0.00 0.00 0.00 0.00 0.00 0.00 0.00 0.00 0.00 0.00 0.00 0.00 0.00 0.01 0.00 0.00 0.00 0.03 0.07 0.14 0.14 0.06 0.03 0.04 0.08 0.16 0.30 0.32 0.30 0.35 0.23 0.18 0.18 0.12 0.11 0.13
0.02 0.02 0.01 0.00 0.00 0.00 0.00 0.00 0.00 0.00 0.00 0.00 0.00 0.00 0.00 0.00 0.00 0.00 0.00 0.00 0.00 0.00 0.00 0.00 0.00 0.01 0.10 0.17 0.17 0.11 0.04 0.06 0.12 0.21 0.29 0.38 0.44 0.39 0.27 0.26 0.19 0.16 0.10 0.07
0.03 0.01 0.00 0.00 0.00 0.00 0.00 0.00 0.00 0.00 0.00 0.00 0.00 0.00 0.00 0.00 0.00 0.00 0.00 0.00 0.00 0.00 0.00 0.00 0.00 0.01 0.06 0.14 0.18 0.14 0.13 0.15 0.23 0.37 0.38 0.31 0.34 0.38 0.31 0.29 0.28 0.25 0.17 0.12
0.00 0.00 0.00 0.00 0.00 0.00 0.00 0.00 0.00 0.00 0.00 0.00 0.00 0.00 0.00 0.00 0.00 0.00 0.00 0.00 0.00 0.00 0.00 0.00 0.01 0.01 0.02 0.05 0.07 0.10 0.12 0.17 0.39 0.61 0.70 0.56 0.47 0.43 0.35 0.32 0.25 0.19 0.16 0.14
0.00 0.00 0.00 0.00 0.00 0.00 0.00 0.00 0.00 0.00 0.00 0.00 0.00 0.00 0.00 0.00 0.00 0.00 0.00 0.01 0.02 0.00 0.00 0.00 0.00 0.01 0.02 0.01 0.00 0.01 0.03 0.07 0.08 0.17 0.32 0.50 0.51 0.48 0.29 0.21 0.16 0.17 0.19 0.13
0.00 0.00 0.00 0.00 0.00 0.00 0.00 0.00 0.00 0.01 0.01 0.01 0.01 0.00 0.00 0.01 0.01 0.01 0.05 0.05 0.02 0.00 0.00 0.00 0.00 0.00 0.00 0.00 0.00 0.00 0.00 0.01 0.02 0.03 0.04 0.08 0.10 0.17 0.26 0.21 0.20 0.20 0.20 0.19
0.00 0.00 0.00 0.00 0.00 0.01 0.01 0.02 0.02 0.02 0.01 0.01 0.00 0.00 0.01 0.06 0.08 0.03 0.01 0.01 0.00 0.00 0.00 0.00 0.00 0.00 0.00 0.00 0.00 0.00 0.00 0.01 0.01 0.01 0.02 0.03 0.04 0.05 0.07 0.09 0.09 0.10 0.11 0.13
0.00 0.00 0.00 0.00 0.00 0.00 0.01 0.00 0.00 0.00 0.00 0.00 0.00 0.00 0.00 0.01 0.02 0.07 0.03 0.01 0.01 0.01 0.00 0.00 0.00 0.00 0.00 0.00 0.00 0.00 0.00 0.00 0.01 0.00 0.00 0.00 0.01 0.02 0.03 0.03 0.05 0.07 0.10 0.10
0.00 0.00 0.00 0.00 0.00 0.00 0.00 0.00 0.00 0.02 0.03 0.03 0.01 0.00 0.00 0.01 0.03 0.05 0.08 0.07 0.06 0.04 0.01 0.00 0.00 0.00 0.00 0.00 0.00 0.00 0.00 0.00 0.00 0.00 0.01 0.00 0.00 0.01 0.01 0.01 0.02 0.02 0.05 0.07
0.00 0.00 0.00 0.00 0.00 0.01 0.01 0.01 0.01 0.01 0.04 0.05 0.02 0.01 0.01 0.01 0.02 0.03 0.06 0.06 0.06 0.03 0.01 0.00 0.00 0.00 0.00 0.00 0.00 0.00 0.00 0.00 0.00 0.00 0.00 0.01 0.01 0.00 0.00 0.00 0.01 0.02 0.01 0.03
0.00 0.00 0.00 0.00 0.00 0.01 0.01 0.02 0.01 0.01 0.01 0.01 0.01 0.01 0.01 0.01 0.02 0.03 0.05 0.05 0.04 0.01 0.00 0.00 0.00 0.00 0.00 0.01 0.01 0.00 0.01 0.01 0.01 0.01 0.01 0.01 0.01 0.01 0.01 0.00 0.01 0.01 0.02 0.02
0.00 0.00 0.00 0.00 0.00 0.00 0.00 0.00 0.00 0.00 0.00 0.01 0.00 0.00 0.00 0.01 0.01 0.02 0.02 0.02 0.01 0.01 0.00 0.00 0.00 0.00 0.00 0.00 0.01 0.01 0.02 0.03 0.04 0.04 0.03 0.02 0.02 0.01 0.01 0.01 0.01 0.01 0.02 0.02
0.00 0.00 0.00 0.00 0.00 0.00 0.00 0.00 0.00 0.00 0.00 0.00 0.00 0.00 0.00 0.01 0.01 0.01 0.00 0.00 0.00 0.01 0.00 0.00 0.00 0.00 0.01 0.01 0.00 0.01 0.02 0.04 0.05 0.06 0.06 0.06 0.06 0.06 0.05 0.04 0.03 0.03 0.02 0.02
0.00 0.00 0.00 0.00 0.00 0.00 0.00 0.00 0.00 0.00 0.00 0.00 0.00 0.00 0.01 0.00 0.00 0.01 0.01 0.02 0.02 0.01 0.00 0.00 0.01 0.01 0.02 0.01 0.01 0.01 0.02 0.05 0.09 0.11 0.12 0.11 0.11 0.11 0.11 0.10 0.06 0.03 0.03 0.03
0.00 0.00 0.00 0.00 0.00 0.00 0.00 0.00 0.00 0.00 0.00 0.00 0.00 0.00 0.00 0.01 0.02 0.01 0.01 0.01 0.01 0.01 0.01 0.01 0.02 0.02 0.03 0.01 0.02 0.03 0.05 0.06 0.08 0.11 0.12 0.12 0.09 0.06 0.05 0.03 0.03 0.02 0.02 0.02
0.00 0.00 0.00 0.00 0.00 0.00 0.00 0.00 0.00 0.00 0.00 0.00 0.00 0.00 0.01 0.01 0.01 0.01 0.01 0.01 0.02 0.01 0.02 0.03 0.02 0.02 0.03 0.03 0.04 0.04 0.04 0.04 0.03 0.02 0.02 0.02 0.02 0.02 0.02 0.01 0.02 0.02 0.02 0.01
0.00 0.00 0.00 0.00 0.00 0.00 0.00 0.00 0.00 0.00 0.00 0.01 0.01 0.01 0.01 0.01 0.01 0.02 0.01 0.02 0.02 0.01 0.02 0.03 0.02 0.02 0.01 0.02 0.01 0.01 0.01 0.01 0.01 0.01 0.01 0.01 0.01 0.01 0.02 0.02 0.02 0.02 0.02 0.02
0.00 0.00 0.00 0.00 0.00 0.00 0.00 0.00 0.00 0.00 0.00 0.01 0.02 0.00 0.01 0.02 0.03 0.02 0.02 0.02 0.02 0.01 0.02 0.02 0.02 0.01 0.01 0.01 0.00 0.00 0.00 0.01 0.01 0.01 0.01 0.02 0.01 0.01 0.01 0.01 0.02 0.01 0.01 0.01

GFSNGP_prec_precacc12_207.txt.gz
Total_Precipitation_Accumulation
0.01 0.00 0.00 0.00 0.00 0.00 0.01 0.00 0.00 0.00 0.00 0.00 0.00 0.00 0.00 0.00 0.00 0.00 0.00 0.00 0.00 0.00 0.00 0.00 0.00 0.00 0.00 0.00 0.00 0.00 0.00 0.00 0.00 0.00 0.00 0.00 0.00 0.00 0.00 0.00 0.00 0.00 0.01 0.02
0.03 0.02 0.02 0.01 0.00 0.01 0.00 0.00 0.00 0.00 0.00 0.00 0.00 0.01 0.00 0.00 0.00 0.00 0.00 0.00 0.00 0.00 0.00 0.00 0.00 0.00 0.00 0.00 0.00 0.00 0.00 0.00 0.00 0.00 0.00 0.00 0.00 0.00 0.00 0.00 0.02 0.02 0.03 0.08
0.28 0.12 0.10 0.29 0.10 0.00 0.00 0.00 0.00 0.02 0.02 0.00 0.01 0.02 0.00 0.00 0.00 0.00 0.00 0.00 0.00 0.00 0.00 0.00 0.00 0.00 0.00 0.00 0.00 0.00 0.00 0.00 0.00 0.00 0.00 0.00 0.00 0.00 0.00 0.01 0.04 0.04 0.05 0.07
0.80 0.40 0.56 0.55 0.05 0.00 0.00 0.00 0.00 0.01 0.00 0.03 0.02 0.00 0.00 0.00 0.00 0.00 0.00 0.00 0.00 0.00 0.00 0.00 0.00 0.00 0.00 0.00 0.00 0.00 0.00 0.00 0.00 0.00 0.00 0.00 0.00 0.00 0.02 0.04 0.05 0.06 0.05 0.07
0.82 0.67 0.48 0.11 0.00 0.00 0.00 0.00 0.00 0.00 0.00 0.01 0.01 0.01 0.02 0.00 0.00 0.00 0.00 0.00 0.00 0.00 0.00 0.00 0.00 0.00 0.00 0.00 0.00 0.00 0.00 0.00 0.00 0.00 0.00 0.00 0.00 0.02 0.05 0.06 0.03 0.05 0.05 0.07
1.19 0.72 0.36 0.03 0.00 0.00 0.02 0.13 0.01 0.00 0.00 0.00 0.01 0.07 0.04 0.00 0.00 0.00 0.00 0.00 0.00 0.00 0.00 0.00 0.00 0.00 0.00 0.00 0.00 0.00 0.00 0.00 0.00 0.01 0.00 0.00 0.01 0.05 0.08 0.09 0.09 0.05 0.06 0.07
0.78 0.57 0.20 0.00 0.00 0.00 0.08 0.08 0.00 0.00 0.00 0.00 0.05 0.04 0.00 0.01 0.01 0.00 0.00 0.00 0.00 0.00 0.00 0.00 0.00 0.00 0.00 0.00 0.00 0.00 0.01 0.01 0.00 0.00 0.00 0.01 0.03 0.09 0.12 0.12 0.13 0.06 0.05 0.08
0.31 0.30 0.10 0.00 0.00 0.00 0.01 0.00 0.00 0.00 0.00 0.00 0.00 0.00 0.00 0.00 0.00 0.00 0.00 0.00 0.00 0.00 0.00 0.00 0.00 0.00 0.00 0.00 0.00 0.01 0.02 0.01 0.00 0.00 0.01 0.02 0.06 0.12 0.13 0.14 0.12 0.05 0.04 0.07
0.04 0.04 0.01 0.00 0.00 0.00 0.00 0.00 0.00 0.00 0.00 0.00 0.00 0.00 0.00 0.00 0.00 0.00 0.00 0.00 0.00 0.00 0.00 0.00 0.00 0.00 0.00 0.00 0.00 0.02 0.02 0.00 0.00 0.00 0.01 0.03 0.05 0.10 0.11 0.12 0.11 0.06 0.04 0.05
0.02 0.01 0.00 0.00 0.00 0.00 0.00 0.00 0.00 0.00 0.00 0.00 0.00 0.00 0.00 0.00 0.00 0.00 0.00 0.00 0.00 0.00 0.00 0.00 0.00 0.00 0.00 0.00 0.00 0.00 0.01 0.01 0.01 0.01 0.02 0.02 0.05 0.08 0.07 0.10 0.13 0.07 0.05 0.06
0.04 0.02 0.01 0.00 0.00 0.00 0.00 0.00 0.00 0.00 0.00 0.00 0.00 0.00 0.00 0.00 0.00 0.00 0.00 0.00 0.00 0.00 0.00 0.00 0.00 0.00 0.00 0.00 0.00 0.00 0.00 0.02 0.04 0.04 0.03 0.04 0.07 0.09 0.08 0.09 0.09 0.11 0.07 0.04
0.08 0.01 0.00 0.00 0.00 0.00 0.00 0.00 0.00 0.00 0.00 0.00 0.00 0.00 0.00 0.00 0.00 0.00 0.00 0.00 0.00 0.00 0.00 0.00 0.00 0.00 0.00 0.00 0.00 0.00 0.00 0.01 0.05 0.09 0.07 0.05 0.10 0.14 0.14 0.14 0.15 0.14 0.10 0.06
0.00 0.00 0.00 0.00 0.00 0.00 0.00 0.00 0.00 0.00 0.00 0.00 0.00 0.00 0.00 0.00 0.00 0.00 0.00 0.00 0.00 0.00 0.00 0.00 0.00 0.00 0.00 0.00 0.00 0.00 0.01 0.00 0.01 0.06 0.11 0.11 0.19 0.24 0.23 0.23 0.16 0.09 0.09 0.07
0.00 0.00 0.00 0.00 0.00 0.00 0.00 0.00 0.00 0.00 0.00 0.00 0.00 0.00 0.00 0.00 0.00 0.00 0.00 0.00 0.00 0.00 0.00 0.00 0.00 0.00 0.00 0.00 0.00 0.00 0.00 0.01 0.01 0.01 0.05 0.13 0.18 0.21 0.16 0.12 0.09 0.08 0.11 0.08
0.00 0.00 0.00 0.00 0.00 0.00 0.00 0.00 0.00 0.00 0.00 0.00 0.00 0.00 0.00 0.00 0.00 0.00 0.00 0.00 0.00 0.00 0.00 0.00 0.00 0.00 0.00 0.00 0.00 0.00 0.00 0.00 0.01 0.00 0.01 0.03 0.04 0.05 0.06 0.06 0.08 0.08 0.09 0.10
0.00 0.00 0.00 0.00 0.00 0.00 0.00 0.00 0.00 0.00 0.00 0.00 0.00 0.00 0.00 0.00 0.00 0.00 0.00 0.01 0.00 0.00 0.00 0.00 0.00 0.00 0.00 0.00 0.00 0.00 0.00 0.00 0.01 0.00 0.00 0.00 0.01 0.02 0.02 0.03 0.04 0.05 0.05 0.07
0.00 0.01 0.00 0.00 0.00 0.00 0.00 0.00 0.00 0.00 0.00 0.00 0.00 0.00 0.00 0.00 0.00 0.03 0.02 0.01 0.00 0.01 0.02 0.01 0.00 0.00 0.00 0.00 0.00 0.00 0.00 0.00 0.00 0.00 0.00 0.00 0.00 0.01 0.02 0.02 0.03 0.04 0.06 0.06
0.01 0.00 0.00 0.00 0.00 0.00 0.00 0.00 0.00 0.00 0.00 0.00 0.00 0.00 0.00 0.00 0.01 0.03 0.06 0.06 0.06 0.07 0.06 0.02 0.00 0.00 0.00 0.00 0.00 0.00 0.01 0.00 0.00 0.00 0.00 0.00 0.00 0.00 0.00 0.01 0.01 0.02 0.04 0.05
0.00 0.00 0.00 0.00 0.00 0.00 0.00 0.00 0.00 0.00 0.00 0.01 0.00 0.00 0.00 0.01 0.01 0.01 0.04 0.06 0.08 0.07 0.05 0.02 0.00 0.00 0.00 0.00 0.00 0.00 0.00 0.00 0.00 0.00 0.00 0.00 0.00 0.00 0.01 0.00 0.01 0.01 0.01 0.02
0.00 0.00 0.00 0.00 0.00 0.00 0.00 0.00 0.00 0.00 0.00 0.00 0.00 0.00 0.00 0.01 0.01 0.02 0.04 0.06 0.06 0.04 0.02 0.00 0.00 0.00 0.00 0.00 0.01 0.00 0.00 0.01 0.01 0.01 0.00 0.00 0.00 0.01 0.01 0.01 0.00 0.01 0.01 0.00
0.00 0.00 0.00 0.00 0.00 0.00 0.00 0.00 0.00 0.00 0.00 0.01 0.00 0.00 0.00 0.01 0.01 0.02 0.03 0.03 0.05 0.03 0.01 0.00 0.00 0.00 0.00 0.01 0.00 0.01 0.02 0.02 0.02 0.01 0.01 0.01 0.01 0.01 0.01 0.01 0.01 0.01 0.01 0.01
0.00 0.00 0.00 0.00 0.00 0.00 0.00 0.00 0.00 0.00 0.00 0.00 0.00 0.00 0.00 0.01 0.02 0.02 0.01 0.01 0.02 0.02 0.01 0.00 0.00 0.00 0.00 0.01 0.00 0.00 0.01 0.01 0.01 0.01 0.01 0.01 0.03 0.04 0.04 0.04 0.03 0.02 0.01 0.01
0.00 0.00 0.00 0.00 0.00 0.00 0.00 0.00 0.00 0.00 0.00 0.00 0.00 0.00 0.00 0.00 0.01 0.01 0.02 0.03 0.02 0.01 0.00 0.00 0.01 0.01 0.01 0.01 0.00 0.00 0.00 0.01 0.01 0.01 0.01 0.03 0.05 0.07 0.09 0.09 0.07 0.04 0.03 0.02
0.00 0.00 0.00 0.00 0.00 0.00 0.00 0.00 0.00 0.00 0.00 0.00 0.00 0.00 0.00 0.01 0.02 0.01 0.00 0.01 0.01 0.01 0.01 0.01 0.01 0.01 0.01 0.00 0.00 0.00 0.00 0.01 0.01 0.02 0.03 0.04 0.05 0.04 0.04 0.03 0.02 0.01 0.01 0.01
0.00 0.00 0.00 0.00 0.00 0.00 0.00 0.00 0.00 0.00 0.00 0.00 0.01 0.00 0.00 0.01 0.00 0.01 0.01 0.01 0.01 0.01 0.01 0.01 0.01 0.01 0.01 0.00 0.00 0.00 0.01 0.01 0.01 0.01 0.00 0.01 0.01 0.01 0.00 0.00 0.01 0.01 0.01 0.01
0.00 0.00 0.00 0.00 0.00 0.00 0.00 0.00 0.00 0.00 0.00 0.02 0.02 0.01 0.01 0.01 0.01 0.01 0.01 0.01 0.01 0.01 0.01 0.01 0.01 0.01 0.01 0.01 0.00 0.00 0.01 0.01 0.01 0.01 0.01 0.00 0.00 0.00 0.01 0.01 0.00 0.00 0.01 0.00
0.00 0.00 0.00 0.00 0.00 0.00 0.00 0.00 0.00 0.00 0.00 0.00 0.01 0.00 0.01 0.02 0.02 0.02 0.02 0.02 0.01 0.01 0.01 0.01 0.02 0.01 0.01 0.01 0.01 0.01 0.01 0.01 0.01 0.00 0.00 0.01 0.01 0.01 0.01 0.00 0.01 0.00 0.01 0.00